Weather History for Deer Park, WA

Change the Weather History Date:

Saturday, March 2, 2013

  Actual Average Record
Temperature  
Mean Temperature 41 °F 34 °F  
Max Temperature 49 °F 44 °F 52 °F (2005)
Min Temperature 33 °F 23 °F 1 °F (2007)
Degree Days  
Heating Degree Days 24 32  
Month to date heating degree days 49 64  
Since 1 July heating degree days 5127 5429  
Cooling Degree Days 0 0  
Month to date cooling degree days 0 0  
Year to date cooling degree days 0 0  
Moisture  
Dew Point 35 °F    
Average Humidity 86    
Maximum Humidity 100    
Minimum Humidity 71    
Precipitation  
Precipitation T in 0.05 in 0.29 in (2014)
Month to date precipitation 0.02 0.10  
Year to date precipitation 2.45 4.33  
Sea Level Pressure  
Sea Level Pressure 30.15 in    
Wind  
Wind Speed 4 mph (West)    
Max Wind Speed 17 mph    
Max Gust Speed 23 mph    
Visibility 6 miles    
Events Rain    
T = Trace of Precipitation, MM = Missing Value Source: NWS Daily Summary

Daily Weather History Graph

Daily Weather History Graph

Search for Another Location

Airport:

Trip Planner

Search our weather history database for the weather conditions in past years. The results will help you decide how hot, cold, wet, or windy it might be!

Date:

Astronomy

Mar. 02, 2013 Rise Set
Actual Time 6:27 AM PST 5:36 PM PST
Civil Twilight 5:56 AM PST 6:07 PM PST
Nautical Twilight 5:21 AM PST 6:43 PM PST
Astronomical Twilight 4:45 AM PST 7:19 PM PST
Moon 11:50 PM PST (3/2) 8:32 AM PST (3/2)
Length of Visible Light 12h 10m
Length of Day
11h 08m
Waning Gibbous, 73% of the Moon is Illuminated
Mar 2
Waning Gibbous
Mar 4
Last Quarter
Mar 11
New
Mar 19
First Quarter
Mar 27
Full

Hourly Weather History & Observations

Time (PST) Temp. Windchill Dew Point Humidity Pressure Visibility Wind Dir Wind Speed Gust Speed Precip Events Conditions
1:53 AM 37.9 °F - 36.0 °F 93% 30.29 in 10.0 mi Calm Calm - N/A   Clear
4:00 AM 33.8 °F - 33.8 °F 100% 30.22 in 1.2 mi Calm Calm - N/A   Clear
4:06 AM 33.8 °F - 33.8 °F 100% 30.22 in 0.8 mi Calm Calm - N/A   Mist
4:09 AM 33.8 °F - 33.8 °F 100% 30.22 in 1.2 mi Calm Calm - N/A   Partly Cloudy
4:22 AM 35.6 °F - 33.8 °F 93% 30.22 in 0.8 mi Calm Calm - N/A   Mist
4:35 AM 33.8 °F - 33.8 °F 100% 30.23 in 1.2 mi Calm Calm - N/A   Partly Cloudy
4:39 AM 33.8 °F - 33.8 °F 100% 30.23 in 4.0 mi Calm Calm - N/A   Partly Cloudy
4:53 AM 35.1 °F - 34.0 °F 96% 30.27 in 9.0 mi Calm Calm - N/A   Clear
5:23 AM 33.8 °F - 33.8 °F 100% 30.21 in 1.5 mi Calm Calm - N/A   Partly Cloudy
5:27 AM 33.8 °F - 33.8 °F 100% 30.20 in 0.8 mi Calm Calm - N/A   Mist
5:38 AM 33.8 °F - 33.8 °F 100% 30.20 in 1.2 mi Calm Calm - N/A   Partly Cloudy
5:50 AM 33.8 °F - 33.8 °F 100% 30.20 in 0.8 mi Calm Calm - N/A   Mist
5:53 AM 33.1 °F - 33.1 °F 100% 30.25 in 0.8 mi Calm Calm - N/A   Mist
6:00 AM 33.8 °F - 33.8 °F 100% 30.20 in 2.0 mi Calm Calm - N/A   Mostly Cloudy
6:07 AM 33.8 °F - 33.8 °F 100% 30.20 in 7.0 mi Calm Calm - N/A   Mostly Cloudy
6:14 AM 33.8 °F - 33.8 °F 100% 30.20 in 5.0 mi Calm Calm - N/A   Scattered Clouds
6:16 AM 33.8 °F - 33.8 °F 100% 30.20 in 1.8 mi Calm Calm - N/A   Scattered Clouds
6:19 AM 33.8 °F - 33.8 °F 100% 30.20 in 0.8 mi Calm Calm - N/A   Mist
6:28 AM 35.6 °F - 35.6 °F 100% 30.19 in 1.5 mi Calm Calm - N/A   Partly Cloudy
6:53 AM 34.0 °F 31.0 °F 34.0 °F 100% 30.24 in 1.8 mi North 3.5 mph - N/A   Clear
6:59 AM 33.8 °F - 33.8 °F 100% 30.19 in 3.0 mi Calm Calm - N/A   Partly Cloudy
7:53 AM 35.1 °F 32.2 °F 35.1 °F 100% 30.23 in 9.0 mi North 3.5 mph - N/A   Partly Cloudy
8:14 AM 35.6 °F 31.7 °F 35.6 °F 100% 30.18 in 10.0 mi NW 4.6 mph - N/A   Mostly Cloudy
8:53 AM 39.0 °F - 37.0 °F 93% 30.22 in 10.0 mi Calm Calm - N/A   Overcast
9:12 AM 37.4 °F 34.9 °F 35.6 °F 93% 30.17 in 10.0 mi NNW 3.5 mph - N/A   Overcast
9:53 AM 39.0 °F - 37.9 °F 96% 30.20 in 10.0 mi Calm Calm - N/A   Overcast
10:53 AM 41.0 °F 35.8 °F 37.0 °F 86% 30.18 in 10.0 mi NNW 8.1 mph - N/A   Mostly Cloudy
11:53 AM 45.0 °F 43.5 °F 37.9 °F 76% 30.14 in 10.0 mi NW 3.5 mph - N/A   Clear
12:53 PM 45.0 °F 41.8 °F 37.0 °F 74% 30.11 in 10.0 mi NW 5.8 mph - N/A   Mostly Cloudy
1:53 PM 48.0 °F - 39.0 °F 71% 30.08 in 10.0 mi Calm Calm - N/A   Mostly Cloudy
2:53 PM 46.9 °F - 39.0 °F 74% 30.06 in 10.0 mi Calm Calm - N/A   Overcast
3:53 PM 44.1 °F - 37.9 °F 79% 30.04 in 10.0 mi Calm Calm - N/A   Overcast
4:53 PM 39.0 °F 34.8 °F 36.0 °F 89% 30.04 in 10.0 mi WNW 5.8 mph - N/A   Overcast
5:53 PM 37.9 °F - 36.0 °F 93% 30.02 in 10.0 mi Calm Calm - N/A   Overcast
6:53 PM 43.0 °F 41.3 °F 37.9 °F 82% 29.99 in 10.0 mi SSW 3.5 mph - 0.00 in Rain Light Rain
7:53 PM 39.9 °F 35.8 °F 37.0 °F 89% 29.96 in 10.0 mi South 5.8 mph - 0.00 in   Overcast
8:53 PM 43.0 °F 36.4 °F 37.9 °F 82% 29.94 in 10.0 mi South 12.7 mph - N/A   Mostly Cloudy
9:53 PM 43.0 °F 36.8 °F 37.9 °F 82% 29.92 in 10.0 mi SSW 11.5 mph - N/A   Scattered Clouds
10:53 PM 41.0 °F 33.1 °F 37.0 °F 86% 29.91 in 10.0 mi SSW 15.0 mph - N/A   Partly Cloudy
11:53 PM 39.9 °F 34.5 °F 36.0 °F 86% 29.89 in 10.0 mi SSW 8.1 mph - N/A   Overcast